Regional Weather Roundup
Issued by NWS Albany, NY

Home | Current Version | Previous Version | Text Only | Print | Product List | Glossary On
Versions: 1 2 3 4 5 6 7 8 9 10 11 12 13 14 15 16 17 18 19 20 21 22 23 24 25 26 27 28 29 30 31 32 33 34 35 36 37 38 39 40 41 42 43 44 45 46 47 48 49 50
000
ASUS41 KALY 050810
RWRALY

NEW YORK STATE HOURLY WEATHER ROUNDUP
NATIONAL WEATHER SERVICE ALBANY NY
300 AM EST THU MAR 05 2015

NOTE: "FAIR" INDICATES FEW OR NO CLOUDS BELOW 12,000 FEET WITH NO
SIGNIFICANT WEATHER AND/OR NO OBSTRUCTIONS TO VISIBILITY.

NYZ032-033-038>043-046>054-057>066-NYZ062>081-050900-
EAST


CITY           SKY/WX    TMP DP  RH WIND       PRES   REMARKS
ALBANY         FLURRIES  30  17  58 NW15G26   29.95R WCI  19
GLENS FALLS    CLOUDY    29  12  49 N9        29.94S WCI  20
POUGHKEEPSIE   CLOUDY    34  32  92 CALM      29.93R FOG
MONTGOMERY     CLOUDY    35  31  85 W5        29.91S WCI  31
WHITE PLAINS   LGT RAIN  35  32  88 NW12      29.89R FOG     WCI  27
ISLIP          LGT RAIN  38  36  92 W5        29.89R FOG     WCI  34
NEW YORK CITY  LGT RAIN  37  32  81 NW10      29.92R WCI  30
CENTRAL PARK   MIX PCPN  36  33  89 NW9G16    29.94R WCI  29
$$

NYZ005>009-017-018-044>046-055-056-050900-
CENTRAL


CITY           SKY/WX    TMP DP  RH WIND       PRES   REMARKS
FULTON         CLOUDY    19   6  57 NW16G26   30.11R WCI   4
SYRACUSE       FLURRIES  17  10  74 NW20G25   30.09R WCI   1
ROME           CLOUDY    21  12  68 NW15      30.04R WCI   8
ELMIRA         CLOUDY    28  19  69 N15G22    30.01R WCI  16
BINGHAMTON     CLOUDY    24  19  81 NW10      29.92F WCI  14
MONTICELLO     CLOUDY    30  19  64 NW16      29.89S WCI  19
$$

NYZ026>034-041>043-050900-
NORTH


CITY           SKY/WX    TMP DP  RH WIND       PRES   REMARKS
WATERTOWN      CLOUDY    20   4  50 W13       30.09R WCI   7
FORT DRUM      NOT AVBL
MASSENA        CLOUDY    17   2  51 W14       30.05R WCI   3
SARANAC LAKE   CLOUDY    15   2  56 VRB5      29.87R WCI   8
PLATTSBURGH    CLOUDY    22   2  42 W9G18     29.98R WCI  12
$$

NYZ001>004-010>016-019>021-050900-
WEST


CITY           SKY/WX    TMP DP  RH WIND       PRES   REMARKS
NIAGARA FALLS    N/A     15   5  64 NW15      30.21R WCI   0
BUFFALO        FLURRIES  15   4  61 N17       30.18R WCI  -1
DUNKIRK        CLOUDY    15   4  61 N16       30.22R WCI  -1
JAMESTOWN      CLOUDY    12   5  73 NW14G20   30.09R WCI  -3
WELLSVILLE     CLOUDY    19  11  70 NW17G30   30.00R WCI   4
ROCHESTER      FLURRIES  16   4  59 N15G25    30.17R WCI   1
PENN YAN       LGT SNOW  18  12  77 NW21G30   30.08R WCI   1
$$

             KEY
       WCI = WIND CHILL INDEX
       VSB = VISIBILITY
       HX  = HEAT INDEX
$$



USA.gov is the U.S. government's official web portal to all federal, state and local government web resources and services.